Location: Holyhead Bay
(53.3667°N, 4.6667°W)
Time: 06:11:25
(UTC+00:00)

CZ-4 R/B - Pass Details

Date: 24 November 2020
Orbit: 532 x 597 km, 97.7° (Epoch: 23 January)

Event Time Altitude Azimuth Distance (km) Brightness Sun altitude
Exits shadow 17:37:59 12° 112° (ESE) 1,697 3.4 -12.5°
Maximum altitude 17:40:47 24° 62° (ENE) 1,180 2.4 -12.9°
Drops below altitude 10° 17:44:03 10° 8° (N) 1,872 3.8 -13.4°
Sets 17:46:30 0° 354° (N) 2,787 4.8 -13.8°
